軌道要素
Epoch 1998 Nov. 3.0 TT = JDT 2451120.5
T 1998 Oct. 28.12059 TT MPC
q 3.1181186 (2000.0) P Q
z +0.0023346 Peri. 19.40543 +0.07518141 +0.93811135
+/-0.000006 Node 256.06756 -0.95473790 -0.03012882
e 0.9927206 Incl. 20.38476 -0.28779036 +0.34502080
From 182 observations 1998 May 3-1999 Nov. 10, mean residual 0".7.
|